Calgary, AB - June 25th, 2026 - Unreserved Public Online Auction - Complete Retirement Dispersal For Curtis Halvorson - Engine Rebuilding & Machining

Lot #1120: 1990 Nasa Machine Tools Nasa II 230/460V 3-Phase CNC Jig Grinder w/ Fagor 8020 CNC Controller, 60-500 RPM Low Speed, 500-4200 RPM High Speed And 42in X 13in Table. Showing 8148hrs. SN 6166

Bidding is closed.
High Bid:$600.00
NA
Bidding Ended: Thu, Jun 25  10:31:00 am MT
High Bidder: sunlite99
Bid Increment: $10.00
Starting Bid: $5.00
Item has been viewed 261 times.
Bid Date Bid Amount Bidder
Jun 24, 2026 - 11:32:09 PM $600.00 isunlite99
Jun 24, 2026 - 11:32:10 PM $600.00 ixg1746
Jun 24, 2026 - 11:26:10 PM $560.00 isunlite99
Jun 24, 2026 - 11:26:10 PM $550.00 ixg1746
Jun 24, 2026 - 11:26:04 PM $505.00 ixg1746
Jun 24, 2026 - 11:26:04 PM $500.00 isunlite99
Jun 24, 2026 - 11:25:55 PM $355.00 ixg1746
Jun 24, 2026 - 11:25:55 PM $350.00 isunlite99
Jun 21, 2026 - 10:24:20 PM $335.00 ixg1746
Jun 21, 2026 - 10:24:20 PM $330.00 iFarmrepair204
Jun 21, 2026 - 10:24:18 PM $325.00 ixg1746
Jun 21, 2026 - 10:24:18 PM $320.00 iFarmrepair204
Jun 21, 2026 - 10:24:14 PM $315.00 ixg1746
Jun 21, 2026 - 10:24:14 PM $310.00 iFarmrepair204
Jun 21, 2026 - 9:16:52 PM $305.00 ixg1746
Jun 21, 2026 - 9:16:52 PM $300.00 iRed Dragon
Jun 17, 2026 - 9:46:14 PM $210.00 ixg1746
Jun 17, 2026 - 7:34:17 PM $205.00 iDeesbids
Jun 17, 2026 - 7:34:17 PM $200.00 ixg1746
Jun 17, 2026 - 7:34:08 PM $105.00 ixg1746
Jun 17, 2026 - 7:34:08 PM $100.00 iDeesbids
Jun 17, 2026 - 7:33:54 PM $15.00 ixg1746
Jun 17, 2026 - 7:33:54 PM $10.00 iDeesbids
Jun 11, 2026 - 8:53:09 PM $5.00 ixg1746
Click on any picture to see a larger image.